Theta_e
316 316 315 315 317 318 318 317 316 316 316 316 318 321 318 319 321 324 334 336 335 331 330 335 340 340 344 345 344 344 345 340 337 337 339 339 337 334 335 335 335 334 332
316 316 316 317 318 319 319 320 320 317 317 318 318 316 319 324 319 318 319 320 331 335 336 341 341 341 343 341 341 343 345 339 338 341 338 338 336 335 334 334 333 331 327
318 318 318 317 316 316 317 317 318 319 318 320 317 317 316 319 328 322 317 321 326 327 332 339 340 339 340 341 342 343 341 339 341 341 337 338 337 335 333 333 332 328 327
316 315 315 315 315 315 316 316 316 317 319 319 321 319 319 317 316 327 330 319 322 331 334 336 336 338 338 342 343 342 339 339 340 339 336 337 335 334 333 332 329 328 327
315 315 315 314 314 314 314 313 313 313 314 316 317 317 318 317 316 316 328 331 320 325 332 340 342 341 342 343 341 339 340 337 337 339 336 336 334 333 332 331 329 328 327
313 313 313 313 313 313 313 313 313 313 313 312 312 311 319 317 317 322 325 331 331 330 338 340 343 341 342 342 340 339 339 339 338 338 337 335 333 334 333 330 329 327 327
314 313 313 312 312 312 311 311 311 310 310 312 313 317 319 317 318 319 321 328 332 330 333 339 342 341 342 342 340 339 340 339 338 337 335 332 333 331 330 330 329 327 328
314 314 313 313 312 312 311 310 310 310 309 313 318 319 317 316 316 315 323 326 330 330 333 340 340 339 340 338 337 340 338 338 337 335 333 332 331 328 330 330 329 327 328
311 311 311 311 311 310 310 309 309 310 310 311 315 316 315 315 316 321 326 328 328 330 337 339 339 338 337 337 338 338 337 335 334 335 334 332 329 328 328 328 328 327 328
311 311 311 311 310 310 309 309 310 310 310 311 315 317 318 319 320 322 327 327 328 331 337 338 336 335 335 336 337 336 334 332 330 331 331 329 329 328 327 327 327 326 327
309 309 310 310 310 310 309 309 310 311 312 311 313 317 318 319 319 321 325 325 327 332 336 336 334 331 334 334 336 335 333 332 331 329 329 329 328 326 326 325 325 327 328
308 310 310 311 310 309 310 311 312 311 311 313 312 314 315 316 317 318 322 325 328 334 335 335 329 328 335 334 333 331 331 331 330 330 329 328 326 326 327 327 327 328 327
308 309 309 309 309 310 311 311 311 310 312 311 312 313 313 314 314 317 319 324 329 335 334 334 333 333 333 334 333 330 329 329 329 328 327 326 326 326 326 326 327 327 327
307 308 308 309 310 310 311 311 313 313 313 315 315 312 313 315 314 315 317 324 334 334 334 333 333 334 334 332 330 327 327 328 327 326 325 327 326 325 325 325 325 326 326
307 307 307 308 309 310 310 311 312 312 312 313 314 313 314 315 316 317 321 328 333 333 330 331 331 329 328 327 325 326 326 326 326 326 327 327 327 326 326 325 325 325 325
305 307 309 308 308 309 310 312 313 313 313 315 317 315 313 314 320 324 327 332 332 332 327 332 329 327 326 326 325 325 326 326 326 326 327 327 327 326 326 325 325 324 324
305 306 306 307 308 310 312 312 312 313 315 314 315 314 314 316 326 330 330 332 332 331 332 330 329 327 326 325 324 325 326 326 326 326 326 326 326 325 326 326 325 325 325
305 305 306 310 311 311 312 313 313 314 313 313 313 313 315 322 328 330 331 332 332 332 329 328 328 326 325 324 325 326 326 326 326 326 325 324 324 323 323 324 324 324 324
305 307 308 309 311 313 314 315 315 314 314 315 319 321 323 329 330 331 329 330 331 329 328 328 326 325 325 326 326 326 325 324 324 324 323 323 323 323 324 324 324 324 324
308 309 312 314 315 316 318 317 316 317 321 322 327 327 329 330 327 331 330 328 327 328 328 326 326 326 326 325 325 325 325 324 324 324 323 325 324 325 324 324 324 324 324
316 316 320 318 320 320 320 321 323 322 323 325 326 328 327 329 328 328 328 328 327 326 326 326 325 326 326 326 325 325 323 322 322 322 322 322 323 322 324 324 324 324 324
322 323 322 323 324 325 324 324 323 323 320 322 323 327 329 328 328 328 327 327 327 326 326 326 326 326 326 326 324 323 322 322 322 323 322 322 321 323 323 324 323 324 323
322 322 322 323 325 325 325 324 320 323 324 326 327 328 329 328 327 326 326 327 327 327 327 327 327 327 326 325 324 322 322 322 322 322 322 323 323 324 323 324 325 324 322
323 323 325 325 325 325 324 325 325 325 327 327 328 328 327 326 326 326 326 326 326 327 327 326 327 326 325 324 323 322 323 323 323 322 323 323 324 324 324 324 325 323 322
327 327 327 326 325 324 325 326 326 327 327 327 327 326 326 326 327 326 326 326 326 326 326 326 325 325 323 323 324 325 325 325 324 324 324 323 323 322 321 321 320 318 316
328 328 328 328 327 327 326 326 325 325 324 325 325 325 325 325 326 326 326 326 326 326 326 326 325 324 324 324 324 324 324 324 324 322 321 321 321 320 320 318 317 313 307
Wind_Speed
18 15 12 13 13 12 13 15 16 17 17 17 17 19 20 24 25 27 30 35 32 35 40 39 37 40 40 39 37 32 31 32 29 23 20 17 16 15 16 19 21 22 23
21 20 20 20 21 23 23 23 22 23 22 22 23 24 22 23 26 27 30 35 34 38 42 39 39 41 42 35 32 29 28 27 26 20 17 18 17 17 17 20 21 21 18
26 26 24 24 23 23 22 18 20 23 25 26 30 32 29 25 25 27 31 31 33 36 37 39 41 42 40 36 30 28 24 23 21 19 19 21 20 20 18 19 19 18 14
28 28 27 27 27 27 27 28 27 26 26 25 26 32 32 33 32 29 27 32 34 32 36 40 41 42 41 35 28 26 23 22 21 19 23 20 19 19 18 18 17 14 11
22 24 26 28 30 32 34 35 34 35 35 35 32 34 38 39 38 32 29 28 34 34 34 34 38 35 31 28 27 25 23 25 23 23 25 23 21 21 18 16 15 13 10
32 32 32 32 31 33 33 33 35 37 39 45 49 50 41 40 35 31 31 30 31 31 34 34 31 32 28 28 25 23 24 22 22 23 22 22 22 19 17 18 15 13 11
35 35 35 35 36 37 35 36 39 40 42 36 38 37 40 39 36 35 33 33 31 34 34 33 34 31 28 27 23 22 21 20 21 18 20 20 19 18 17 19 16 13 10
33 35 33 30 31 33 37 42 43 41 40 37 29 33 38 39 39 37 30 33 32 33 33 31 31 29 27 25 24 23 21 19 20 20 19 17 17 15 15 15 9 11 12
42 42 40 39 38 37 38 40 44 41 38 38 33 31 32 34 34 31 28 29 32 32 29 29 29 28 25 22 22 21 19 16 15 17 17 16 16 13 12 13 16 15 15
48 43 42 41 41 42 42 41 43 41 43 38 35 30 29 27 31 31 25 28 32 31 29 26 22 20 22 23 20 18 15 13 12 13 13 14 14 13 11 8 10 10 14
43 46 46 47 45 42 43 42 40 34 35 38 38 33 28 30 34 30 28 28 31 30 28 24 20 18 23 22 16 14 13 10 11 12 10 12 13 13 11 12 13 11 11
41 42 45 42 41 41 39 40 39 36 39 34 37 36 28 31 39 36 29 30 29 29 26 30 27 26 25 16 14 12 12 11 12 10 11 12 12 12 11 10 10 9 9
36 39 44 44 43 37 37 35 36 34 31 36 39 37 30 34 38 39 35 30 28 28 27 29 26 25 22 16 15 12 13 13 11 11 12 12 10 10 11 10 10 11 9
35 36 36 34 34 33 31 29 27 31 34 28 29 33 33 32 32 37 32 26 25 24 24 21 20 21 17 17 16 15 13 12 12 15 14 12 12 11 9 10 10 10 9
33 33 32 31 30 31 30 30 33 33 32 33 34 33 32 29 27 30 27 24 27 27 26 22 24 20 20 18 17 15 15 16 17 15 15 14 11 9 9 9 9 9 8
31 30 31 30 29 30 30 29 28 28 27 26 24 27 31 29 24 23 21 23 32 35 32 32 25 20 20 21 19 18 18 17 13 12 14 13 11 10 10 10 9 6 6
32 30 28 26 28 31 30 30 30 27 25 27 28 30 28 22 22 20 20 29 30 32 33 27 22 22 22 20 19 20 20 18 14 13 15 13 12 9 12 10 8 8 7
27 27 27 22 22 21 24 24 24 24 24 28 31 32 25 26 22 25 25 31 34 32 24 24 24 24 23 23 23 21 19 18 16 15 13 11 12 10 10 11 9 7 6
24 25 24 23 20 18 20 21 20 21 21 22 22 23 26 23 22 27 29 36 36 30 25 24 24 25 26 24 21 20 19 16 14 13 13 12 11 12 10 10 9 7 7
21 22 20 19 18 17 16 17 20 19 19 15 22 22 32 35 33 41 37 34 31 27 26 25 26 28 25 21 19 19 18 16 13 14 12 11 11 9 9 8 8 7 7
11 13 14 15 14 19 20 19 21 20 18 24 21 25 36 46 40 36 32 29 29 29 27 28 28 26 22 20 18 18 16 15 14 14 12 9 9 9 6 7 6 5 5
6 13 17 14 16 19 22 23 21 23 22 24 24 36 41 38 36 32 29 29 28 26 26 26 26 24 22 18 17 18 16 14 14 12 14 13 12 11 10 8 6 5 3
13 20 25 17 28 29 25 25 27 26 35 38 40 38 38 36 32 30 30 28 28 26 26 26 25 23 20 17 16 15 16 15 15 14 13 13 12 10 9 8 6 8 6
25 21 24 34 34 33 34 39 40 39 41 40 39 37 34 31 31 30 29 30 29 28 27 24 25 23 19 18 16 16 15 14 14 14 12 11 9 9 9 8 10 11 8
30 33 33 33 36 42 41 41 42 40 39 39 36 34 33 32 31 30 29 29 30 29 28 25 23 20 18 17 13 14 14 13 13 14 12 13 12 11 10 8 8 7 6
25 24 26 30 32 36 38 41 40 37 36 35 34 32 31 30 29 29 29 30 31 30 28 25 23 20 19 16 14 15 15 17 19 18 17 14 12 11 10 10 9 9 8
Wind_Direction
233 233 235 244 255 263 276 287 301 296 284 284 281 279 266 260 256 253 255 253 255 259 248 263 260 267 273 273 274 271 264 267 257 266 275 260 266 265 254 258 265 277 279
231 231 235 243 248 250 253 261 271 284 288 284 288 292 284 279 264 257 258 256 257 257 266 268 266 271 273 279 272 265 267 260 260 264 265 258 262 250 247 259 267 277 275
221 223 223 227 232 243 251 260 269 266 272 278 286 290 288 282 283 275 267 262 266 266 265 265 262 266 272 270 261 260 260 253 257 259 247 253 253 245 246 258 269 274 269
217 225 228 236 243 247 252 258 263 263 265 270 280 281 283 287 286 278 279 273 260 260 262 265 265 264 265 264 258 258 250 252 253 252 253 252 246 249 250 261 271 271 276
227 232 238 243 248 253 255 257 261 268 266 267 271 278 279 281 285 279 274 284 272 267 269 268 270 264 259 258 258 247 245 250 253 240 248 248 254 245 253 269 261 263 266
266 262 259 258 259 261 263 264 263 268 268 270 271 271 267 272 280 282 272 280 279 274 274 272 273 263 257 253 246 240 246 251 250 250 246 248 250 258 261 257 251 246 240
259 262 262 265 269 271 271 274 282 285 287 269 263 254 260 268 275 277 273 269 275 269 274 269 269 261 250 242 236 238 240 248 258 249 250 257 258 263 259 245 240 247 251
254 248 250 253 260 269 276 280 282 282 285 263 263 258 258 264 272 279 278 266 273 269 270 267 258 253 233 230 228 230 235 239 245 240 246 251 260 259 252 257 250 240 227
260 257 258 259 262 267 271 275 276 267 271 263 262 257 257 264 267 274 269 276 272 268 268 260 246 236 226 225 229 230 235 232 233 235 240 249 252 247 246 242 230 218 214
256 257 257 259 261 265 270 273 264 262 262 259 249 255 255 262 263 269 267 269 271 265 265 250 238 241 231 226 226 225 224 230 232 244 245 249 243 237 232 230 232 216 215
252 254 254 254 257 262 265 263 258 254 257 255 245 246 249 255 257 263 264 266 267 262 259 228 200 227 233 230 220 226 227 225 228 224 225 232 226 223 220 220 232 224 217
251 252 248 250 253 265 249 247 248 251 249 251 247 249 252 258 258 258 263 265 259 255 243 213 200 206 219 216 214 216 219 215 216 223 231 220 210 210 212 208 197 201 203
245 246 250 255 259 247 243 246 247 248 251 245 250 246 252 261 261 254 264 265 254 250 231 214 203 207 211 204 209 215 215 203 203 206 199 191 181 179 178 185 187 197 196
242 243 250 244 241 243 246 244 240 243 243 239 237 238 248 255 257 252 262 258 243 222 207 202 213 199 197 205 198 190 194 187 193 187 188 179 168 169 163 175 184 187 190
233 238 245 242 242 244 245 242 241 247 240 235 234 238 245 259 259 256 255 246 214 194 186 201 184 184 181 176 178 183 176 176 180 188 188 180 172 165 162 168 172 187 202
230 230 228 239 243 242 241 242 239 244 238 238 240 242 246 258 261 260 242 222 201 189 190 185 181 181 178 176 176 171 173 174 173 181 180 184 182 172 175 165 176 174 200
220 225 233 231 231 235 237 240 248 239 234 237 238 240 251 253 248 249 229 203 196 194 184 179 180 178 177 172 171 174 172 172 168 168 177 182 177 182 187 182 184 195 215
211 219 220 221 227 231 233 232 231 232 231 234 242 244 235 233 238 243 202 187 185 175 175 176 175 170 168 168 168 168 168 169 164 162 158 167 178 180 188 189 187 192 219
202 210 212 216 222 221 224 226 228 236 246 250 252 225 214 202 198 175 174 190 171 170 173 170 167 166 165 164 166 169 171 166 164 164 166 173 170 171 170 177 182 198 221
196 198 197 200 201 206 214 212 218 219 224 235 179 174 159 163 170 164 170 171 168 164 165 163 162 160 161 161 167 171 167 169 173 172 179 178 172 181 184 192 197 213 223
189 213 189 199 205 204 213 217 205 212 206 178 181 174 176 165 155 163 168 167 159 154 155 158 161 163 164 166 169 170 168 163 164 172 179 184 179 179 188 182 188 188 191
189 186 164 182 184 179 187 177 174 178 193 196 198 167 157 160 155 156 155 153 152 156 162 161 160 167 172 173 167 164 161 164 165 164 164 166 174 178 175 177 162 147 125
114 124 141 134 145 150 153 154 168 166 162 164 154 158 157 149 152 153 151 150 156 157 162 168 166 168 167 167 165 166 169 174 174 176 178 175 174 184 183 179 157 152 133
128 128 136 130 143 147 141 132 143 144 145 148 154 152 151 153 152 152 154 157 161 163 165 164 163 165 166 170 172 166 167 171 169 168 174 177 174 165 171 162 163 159 160
134 138 141 143 142 134 136 139 144 149 152 152 153 154 153 153 155 156 158 161 161 160 160 161 162 160 160 157 157 153 153 156 153 150 147 153 154 145 145 146 153 163 167
131 133 129 135 139 143 147 149 147 147 150 154 155 155 156 157 155 157 156 157 158 157 158 158 155 153 153 149 146 148 145 142 143 144 145 150 157 160 163 163 168 162 147